Location: Brzeg
(50.8582°N, 17.4644°E)
Time: 04:56:13
(UTC+01:00)

ISS - Visible Passes

Search period start: 24 November 2017 00:00
Search period end: 04 December 2017 00:00
Orbit: 402 x 407 km, 51.6° (Epoch: 24 November)

Date Brightness Start Highest point End Pass type
(mag) Time Alt. Az. Time Alt. Az. Time Alt. Az.
28 Nov -1.4 18:16:47 10° SSW 18:17:50 17° S 18:17:50 17° S visible
29 Nov -1.8 17:25:14 10° S 17:27:21 16° SE 17:27:45 16° SE visible
29 Nov -0.6 19:00:07 10° WSW 19:00:25 12° WSW 19:00:25 12° WSW visible
30 Nov -2.6 18:07:55 10° SW 18:10:15 34° SSW 18:10:15 34° SSW visible
01 Dec -2.5 17:15:54 10° SSW 17:18:46 28° SSE 17:20:01 22° ESE visible
01 Dec -0.9 18:51:44 10° WSW 18:52:40 18° WSW 18:52:40 18° WSW visible
02 Dec -1.8 16:24:11 10° S 16:26:33 19° SE 16:28:57 10° E visible
02 Dec -3.6 17:59:21 10° WSW 18:02:23 65° SSW 18:02:23 65° SSW visible
03 Dec -3.3 17:07:05 10° SW 17:10:16 48° SSE 17:12:04 22° E visible
03 Dec -1.3 18:43:22 10° W 18:44:42 22° W 18:44:42 22° W visible
